Hourly Data Report for July 24, 1967

All times are specified in Local Standard Time (LST). Add 1 hour to adjust for Daylight Saving Time where and when it is observed.

MONTREAL/PIERRE ELLIOTT TRUDEAU INTL A
QUEBEC

45°28'00.000" N
73°45'00.000" W
36.00 m
7025250
71627
YUL

Download Data

Hourly Data (July 1967)
Hourly Data Report for July 24, 1967
TIME Temp Definition
°C
Dew Point Definition
°C
Rel Hum Definition
%
Wind Dir Definition
10's deg

Wind Spd Definition
km/h
Visibility Definition
km
Stn Press Definition
kPa
Hmdx Definition


Wind Chill Definition


Weather Definition


00:00 21.1 18.3 85 16 3 25.0 100.36 27   Mostly Cloudy
01:00 20.0 18.3 90   0 25.0 100.33 26   Mostly Cloudy
02:00 20.6 18.3 88 25 5 25.0 100.29 27   Mostly Cloudy
03:00 19.4 18.3 94 14 5 16.1 100.27     Mainly Clear
04:00 19.4 18.3 94 14 3 12.9 100.27     Mostly Cloudy
05:00 20.0 18.9 94 16 13 3.2 100.26 27   Thunderstorms,Heavy Rain Showers,Fog
06:00 20.6 20.0 96 16 13 4.8 100.21 28   Thunderstorms,Fog
07:00 21.1 20.0 94 16 13 4.8 100.25 29   Fog
08:00 22.2 21.1 93 9 6 4.8 100.25 31   Thunderstorms,Rain Showers,Fog
09:00 22.8 21.1 91 14 8 6.4 100.22 31   Thunderstorms,Fog
10:00 23.3 21.1 87 18 10 4.8 100.23 32   Fog
11:00 25.6 21.1 77 20 16 8.0 100.23 34   Haze
12:00 27.8 21.7 69 23 24 9.7 100.14 37   Haze
13:00 28.3 21.7 68 23 24 12.9 100.09 37   Mainly Clear
14:00 28.3 21.1 65 23 29 12.9 100.07 37   Cloudy
15:00 27.8 21.1 68 23 32 12.9 100.00 36   Mostly Cloudy
16:00 27.8 21.1 66 23 32 16.1 100.00 36   Mostly Cloudy
17:00 26.7 19.4 64 23 35 19.3 100.00 34   Mainly Clear
18:00 26.1 18.9 64 23 24 24.1 99.95 33   Mainly Clear
19:00 26.1 20.0 68 23 24 24.1 100.05 34   Mainly Clear
20:00 25.0 18.9 69 23 24 19.3 100.06 32   Mainly Clear
21:00 23.9 18.9 74 23 23 19.3 100.09 31   Mainly Clear
22:00 23.9 18.9 73 20 23 19.3 100.08 31   Mainly Clear
23:00 22.8 18.3 75 18 14 19.3 100.08 29   Mainly Clear

Notes on Data Quality.

Legend

  • E = Estimated
  • M = Missing
  • NA = Not Available
Date modified: